Hourly Data Report for August 06, 2022

TORONTO CITY
ONTARIO
Current Station Operator: ECCC - MSC

43°40'00.000" N
79°24'00.000" W
112.50 m
6158355
71508
XTO

Download Data

Hourly Data (August 2022)
Hourly Data Report for August 6, 2022
TIME
LST
Temp Definition
°C
Dew Point Definition
°C
Rel Hum Definition
%
Precip. Amount Definition
mm

Wind Dir Definition
10's deg

Wind Spd Definition
km/h
Visibility Definition
km
Stn Press Definition
kPa
Hmdx Definition


Wind Chill Definition


Weather Definition


00:00 23.1 19.7 81 0.0       100.71 30   LegendNANA
01:00 23.0 19.6 81 0.0       100.68 30   LegendNANA
02:00 22.8 19.5 82 0.0       100.65 30   LegendNANA
03:00 22.7 20.3 86 0.0       100.64 31   LegendNANA
04:00 22.3 20.5 89 0.0       100.64 30   LegendNANA
05:00 21.9 20.5 92 0.0       100.67 30   LegendNANA
06:00 22.1 20.5 91 0.0       100.75 30   LegendNANA
07:00 23.3 20.8 86 0.0       100.75 32   LegendNANA
08:00 24.9 20.9 79 0.0       100.76 33   LegendNANA
09:00 25.8 20.7 74 0.0       100.72 34   LegendNANA
10:00 27.3 21.7 72 0.0       100.70 36   LegendNANA
11:00 27.3 21.8 72 0.0       100.71 36   LegendNANA
12:00 28.1 21.7 68 0.0       100.65 37   LegendNANA
13:00 29.8 22.3 64 0.0       100.61 39   LegendNANA
14:00 29.8 21.7 62 0.0       100.60 39   LegendNANA
15:00 29.7 21.1 60 0.0       100.55 38   LegendNANA
16:00 29.4 20.8 60 0.0       100.48 38   LegendNANA
17:00 29.5 20.2 57 0.0       100.43 37   LegendNANA
18:00 28.8 20.5 61 0.0       100.40 37   LegendNANA
19:00 27.7 20.3 64 0.0       100.43 36   LegendNANA
20:00 27.2 20.5 67 0.0       100.47 35   LegendNANA
21:00 27.1 20.7 68 0.0       100.51 35   LegendNANA
22:00 26.9 20.8 69 0.0       100.51 35   LegendNANA
23:00 24.7 21.2 81 0.0       100.49 33   LegendNANA

Notes on Data Quality.

Legend

  • E = Estimated
  • M = Missing
  • NA = Not Available*
  • [empty] = Indicates an unobserved value
Date modified: